TimeCST,TemperatureF,Dew PointF,Humidity,Sea Level PressureIn,VisibilityMPH,Wind Direction,Wind SpeedMPH,Gust SpeedMPH,PrecipitationIn,Events,Conditions,WindDirDegrees,DateUTC
12:14 AM,42.8,33.8,70,30.17,10.0,NNE,5.8,-,N/A,,Overcast,30,2012-11-04 05:14:00
12:34 AM,41.0,35.6,81,30.17,10.0,NNE,4.6,-,N/A,,Overcast,30,2012-11-04 05:34:00
12:55 AM,41.0,35.6,81,30.17,10.0,NNE,5.8,-,N/A,,Overcast,30,2012-11-04 05:55:00
1:14 AM,41.0,35.6,81,30.17,10.0,NNE,5.8,-,N/A,,Overcast,30,2012-11-04 06:14:00
1:34 AM,41.0,35.6,81,30.18,10.0,NE,5.8,-,N/A,,Overcast,50,2012-11-04 06:34:00
1:55 AM,39.2,35.6,87,30.17,10.0,NE,4.6,-,N/A,,Overcast,40,2012-11-04 06:55:00
1:14 AM,39.2,35.6,87,30.17,10.0,NE,3.5,-,N/A,,Overcast,50,2012-11-04 07:14:00
1:34 AM,39.2,35.6,87,30.17,10.0,NE,4.6,-,N/A,,Overcast,50,2012-11-04 07:34:00
1:55 AM,39.2,35.6,87,30.17,10.0,NE,3.5,-,N/A,,Overcast,40,2012-11-04 07:55:00
2:14 AM,39.2,35.6,87,30.18,10.0,Calm,Calm,-,N/A,,Overcast,0,2012-11-04 08:14:00
2:34 AM,39.2,35.6,87,30.18,10.0,Calm,Calm,-,N/A,,Overcast,0,2012-11-04 08:34:00
2:55 AM,39.2,35.6,87,30.17,10.0,NNE,3.5,-,N/A,,Overcast,30,2012-11-04 08:55:00
3:14 AM,39.2,35.6,87,30.17,10.0,NNE,3.5,-,N/A,,Overcast,30,2012-11-04 09:14:00
3:34 AM,37.4,35.6,93,30.17,10.0,NE,5.8,-,N/A,,Overcast,40,2012-11-04 09:34:00
3:55 AM,37.4,35.6,93,30.17,10.0,NE,5.8,-,N/A,,Overcast,50,2012-11-04 09:55:00
4:14 AM,37.4,35.6,93,30.17,10.0,NE,5.8,-,N/A,,Overcast,40,2012-11-04 10:14:00
4:34 AM,37.4,35.6,93,30.17,10.0,NE,4.6,-,N/A,,Overcast,50,2012-11-04 10:34:00
4:54 AM,37.4,33.8,87,30.17,10.0,NE,3.5,-,N/A,,Overcast,50,2012-11-04 10:54:00
5:14 AM,37.4,33.8,87,30.17,10.0,ENE,4.6,-,N/A,,Overcast,70,2012-11-04 11:14:00
5:35 AM,37.4,33.8,87,30.17,10.0,NE,5.8,-,N/A,,Overcast,50,2012-11-04 11:35:00
5:54 AM,37.4,33.8,87,30.17,10.0,NE,4.6,-,N/A,,Overcast,50,2012-11-04 11:54:00
6:14 AM,37.4,35.6,93,30.17,10.0,ENE,4.6,-,N/A,,Overcast,60,2012-11-04 12:14:00
6:35 AM,37.4,35.6,93,30.17,7.0,East,5.8,-,N/A,,Overcast,80,2012-11-04 12:35:00
6:54 AM,37.4,33.8,87,30.16,7.0,ENE,4.6,-,N/A,,Overcast,60,2012-11-04 12:54:00
7:14 AM,37.4,33.8,87,30.16,7.0,East,4.6,-,N/A,,Overcast,80,2012-11-04 13:14:00
7:35 AM,37.4,35.6,93,30.16,5.0,East,5.8,-,N/A,,Overcast,80,2012-11-04 13:35:00
7:54 AM,37.4,35.6,93,30.16,5.0,ENE,6.9,-,N/A,,Overcast,70,2012-11-04 13:54:00
8:14 AM,37.4,35.6,93,30.16,4.0,East,5.8,-,N/A,,Overcast,90,2012-11-04 14:14:00
8:35 AM,37.4,35.6,93,30.15,4.0,East,5.8,-,N/A,,Overcast,80,2012-11-04 14:35:00
8:54 AM,37.4,35.6,93,30.15,3.0,ENE,4.6,-,N/A,,Overcast,60,2012-11-04 14:54:00
9:14 AM,37.4,35.6,93,30.14,3.0,ENE,5.8,-,N/A,,Overcast,70,2012-11-04 15:14:00
9:35 AM,39.2,35.6,87,30.14,4.0,ENE,5.8,-,N/A,,Overcast,70,2012-11-04 15:35:00
9:54 AM,39.2,35.6,87,30.13,5.0,East,4.6,-,N/A,,Overcast,100,2012-11-04 15:54:00
10:14 AM,41.0,35.6,81,30.13,5.0,East,6.9,-,N/A,,Haze,80,2012-11-04 16:14:00
10:35 AM,41.0,35.6,81,30.13,7.0,East,4.6,-,N/A,,Overcast,90,2012-11-04 16:35:00
10:54 AM,41.0,35.6,81,30.13,7.0,East,5.8,-,N/A,,Overcast,100,2012-11-04 16:54:00
11:14 AM,41.0,35.6,81,30.12,7.0,East,4.6,-,N/A,,Overcast,100,2012-11-04 17:14:00
11:35 AM,41.0,35.6,81,30.12,7.0,ENE,4.6,-,N/A,,Overcast,70,2012-11-04 17:35:00
11:54 AM,42.8,35.6,76,30.11,7.0,East,5.8,-,N/A,,Overcast,90,2012-11-04 17:54:00
12:14 PM,42.8,35.6,76,30.10,7.0,East,4.6,-,N/A,,Overcast,90,2012-11-04 18:14:00
12:34 PM,42.8,35.6,76,30.09,10.0,ENE,4.6,-,N/A,,Overcast,70,2012-11-04 18:34:00
12:54 PM,42.8,35.6,76,30.09,10.0,ENE,3.5,-,N/A,,Overcast,70,2012-11-04 18:54:00
1:15 PM,42.8,35.6,76,30.08,10.0,Calm,Calm,-,N/A,,Overcast,0,2012-11-04 19:15:00
1:34 PM,44.6,35.6,71,30.08,10.0,NE,3.5,-,N/A,,Overcast,50,2012-11-04 19:34:00
1:55 PM,44.6,35.6,71,30.08,10.0,NE,4.6,-,N/A,,Overcast,40,2012-11-04 19:55:00
2:14 PM,44.6,35.6,71,30.07,7.0,NNE,3.5,-,N/A,Rain,Rain,30,2012-11-04 20:14:00
2:34 PM,42.8,37.4,81,30.07,5.0,NNE,8.1,-,N/A,Rain,Light Rain,30,2012-11-04 20:34:00
2:54 PM,42.8,37.4,81,30.07,4.0,NNE,10.4,-,N/A,Rain,Light Rain,30,2012-11-04 20:54:00
3:14 PM,41.0,37.4,87,30.08,4.0,NNE,9.2,-,0.02,Rain,Light Rain,30,2012-11-04 21:14:00
3:35 PM,41.0,37.4,87,30.08,4.0,NE,8.1,-,0.02,Rain,Rain,40,2012-11-04 21:35:00
3:54 PM,41.0,37.4,87,30.08,4.0,NE,8.1,-,0.03,Rain,Light Rain,50,2012-11-04 21:54:00
4:14 PM,41.0,37.4,87,30.08,3.0,ENE,8.1,-,N/A,,Drizzle,60,2012-11-04 22:14:00
4:35 PM,41.0,37.4,87,30.08,5.0,ENE,6.9,-,N/A,,Drizzle,60,2012-11-04 22:35:00
4:54 PM,41.0,37.4,87,30.08,5.0,NE,6.9,-,N/A,Rain,Rain,50,2012-11-04 22:54:00
5:14 PM,41.0,37.4,87,30.08,4.0,NE,5.8,-,0.02,Rain,Light Rain,50,2012-11-04 23:14:00
5:35 PM,41.0,37.4,87,30.08,4.0,NE,5.8,-,0.03,Rain,Light Rain,40,2012-11-04 23:35:00
5:54 PM,39.2,37.4,93,30.09,4.0,NNE,4.6,-,0.03,Rain,Light Rain,30,2012-11-04 23:54:00
6:14 PM,39.2,35.6,87,30.09,5.0,NNE,5.8,-,0.02,,Drizzle,30,2012-11-05 00:14:00
6:35 PM,39.2,35.6,87,30.09,5.0,NE,8.1,-,0.02,,Drizzle,40,2012-11-05 00:35:00
6:54 PM,39.2,35.6,87,30.10,4.0,NE,8.1,-,0.02,Rain,Rain,40,2012-11-05 00:54:00
7:14 PM,39.2,35.6,87,30.10,5.0,NNE,6.9,-,0.01,Rain,Light Rain,30,2012-11-05 01:14:00
7:34 PM,37.4,35.6,93,30.10,5.0,NNE,8.1,-,0.03,Rain,Light Rain,30,2012-11-05 01:34:00
7:54 PM,37.4,35.6,93,30.10,5.0,NNE,6.9,-,0.03,Rain,Light Rain,30,2012-11-05 01:54:00
8:15 PM,37.4,35.6,93,30.09,4.0,NE,5.8,-,0.01,Rain,Light Rain,40,2012-11-05 02:15:00
8:34 PM,37.4,35.6,93,30.10,4.0,NNE,5.8,-,0.01,,Drizzle,30,2012-11-05 02:34:00
8:55 PM,37.4,35.6,93,30.10,4.0,NNE,4.6,-,0.01,Rain,Rain,30,2012-11-05 02:55:00
9:14 PM,37.4,35.6,93,30.10,5.0,NNE,5.8,-,0.02,,Drizzle,30,2012-11-05 03:14:00
9:34 PM,37.4,35.6,93,30.10,5.0,NE,5.8,-,0.02,,Drizzle,40,2012-11-05 03:34:00
9:55 PM,37.4,35.6,93,30.09,5.0,NNE,6.9,-,0.02,,Drizzle,30,2012-11-05 03:55:00
10:14 PM,37.4,35.6,93,30.10,5.0,NNE,5.8,-,N/A,,Light Drizzle,20,2012-11-05 04:14:00
10:34 PM,37.4,35.6,93,30.10,5.0,NNE,5.8,-,N/A,,Overcast,20,2012-11-05 04:34:00
10:55 PM,37.4,35.6,93,30.10,5.0,NNE,8.1,-,N/A,Rain,Rain,20,2012-11-05 04:55:00